User: anonymous   Login
Location: Hemaruka
(51.7801°N, 111.0917°W)
Time: 01:14:30
(UTC+00:00)
Language:

EO-79 - Orbit

View from above orbital plane
View from above orbital plane
View from above satellite
View from above satellite

Ground track
Ground track

The orbit data is extracted from the following two-line orbital elements,

1 40025U 14033R   23340.49068103  .00006781  00000-0  60509-3 0  9990
2 40025  98.0185 290.7588 0013109  83.1203 277.1508 14.96235759513880
Epoch (UTC): 06 December 2023 11:46:34
Eccentricity: 0.0013109
inclination: 98.0185°
perigee height: 569 km
apogee height: 587 km
right ascension of ascending node: 290.7588°
argument of perigee: 83.1203°
revolutions per day: 14.96235759
mean anomaly at epoch: 277.1508°
orbit number at epoch: 51388

The dashed part of the orbit path shows where the satellite is in the earth's shadow,  

DLR